This is the latest recevied weather packets stored in our database for station/object IU5JAE-13. If no packets are shown the sender has not sent any weather packets the latest 1 day(s).
| Time | Temp. | Humidity | Pressure | Rain* | Wind** | Luminosity | Snow |
|---|---|---|---|---|---|---|---|
| 1778075720 | 15° C | 91% | 1010.2 hPa | 0 mm | - | 447 W/m² | - |
| 1778073932 | 14.44° C | 92% | 1010.4 hPa | 0 mm | - | 216 W/m² | - |
| 1778070920 | 13.89° C | 96% | 1010.1 hPa | 1.27 mm | - | 132 W/m² | - |
| 1778067928 | 12.78° C | 96% | 1010 hPa | 4.06 mm | - | 295 W/m² | - |
| 1778067326 | 13.33° C | 98% | 1010.1 hPa | 2.79 mm | - | 81 W/m² | - |
| 1778066723 | 13.89° C | 99% | 1009.9 hPa | 2.79 mm | - | 97 W/m² | - |
| 1778065518 | 13.89° C | 99% | 1009.8 hPa | 7.62 mm | - | 132 W/m² | - |
| 1778064916 | 13.89° C | 99% | 1009.8 hPa | 7.62 mm | - | 177 W/m² | - |
| 1778063731 | 13.33° C | 99% | 1009.8 hPa | 7.62 mm | - | 64 W/m² | - |
| 1778061924 | 13.89° C | 99% | 1009.9 hPa | 0.51 mm | - | 36 W/m² | - |
| 1778060719 | 13.89° C | 99% | 1009.8 hPa | 0.25 mm | - | 122 W/m² | - |
| 1778058932 | 13.33° C | 99% | 1009.7 hPa | 0.25 mm | - | 67 W/m² | - |
| 1778057727 | 13.33° C | 99% | 1009.4 hPa | 0.25 mm | - | 65 W/m² | - |
| 1778057125 | 12.78° C | 99% | 1009.4 hPa | 0.25 mm | - | 30 W/m² | - |
| 1778056522 | 12.78° C | 99% | 1009.8 hPa | 0 mm | - | 19 W/m² | - |
| 1778055920 | 12.78° C | 99% | 1009.7 hPa | 0.25 mm | - | 26 W/m² | - |
| 1778054735 | 12.78° C | 99% | 1009.7 hPa | 0.51 mm | - | 21 W/m² | - |
| 1778054133 | 12.78° C | 99% | 1009.8 hPa | 1.52 mm | - | 20 W/m² | - |
| 1778052928 | 12.78° C | 99% | 1009.9 hPa | 6.35 mm | - | 18 W/m² | - |
| 1778051723 | 12.78° C | 99% | 1009.8 hPa | 9.91 mm | - | 9 W/m² | - |
| 1778051121 | 12.78° C | 99% | 1009.7 hPa | 11.18 mm | - | 12 W/m² | - |
| 1778049916 | 12.22° C | 99% | 1009.6 hPa | 7.11 mm | - | 24 W/m² | - |
| 1778048731 | 12.22° C | 99% | 1009.4 hPa | 5.33 mm | - | 11 W/m² | - |
| 1778046924 | 12.22° C | 99% | 1009.5 hPa | 3.05 mm | - | 18 W/m² | - |
| 1778045719 | 11.67° C | 99% | 1009.6 hPa | 4.57 mm | - | 3 W/m² | - |
* Rain latest hour (hover to see other rain measurements)
** Current wind speed in m/s (hover to see current wind gust speed)